Location: Indian Hills
(32.9760°N, 85.9450°W)
Time: 13:03:45
(UTC+00:00)

CZ-4 R/B - Pass Details

Date: 09 December 2019
Orbit: 532 x 598 km, 97.7° (Epoch: 17 January)

Event Time Altitude Azimuth Distance (km) Brightness Sun altitude
Rises 01:00:39 0° 199° (SSW) 2,732 5.2 -29.4°
Reaches altitude 10° 01:03:17 10° 218° (SW) 1,828 4.5 -29.9°
Maximum altitude 01:06:08 19° 264° (W) 1,339 4.0 -30.5°
Drops below altitude 10° 01:08:57 10° 311° (NW) 1,813 4.4 -31.1°
Sets 01:11:34 0° 329° (NNW) 2,700 5.1 -31.6°
